Roseburg, OR

3:47 PM PST on November 21, 2019 (GMT -0800)
Roseburg Regional

Weather History for KRBG - July, 2019

Change the Weather History Date:

Saturday, July 27, 2019

  Actual Average Record
Temperature  
Mean Temperature 75 °F 72 °F  
Max Temperature 91 °F 86 °F 107 °F (1998)
Min Temperature 58 °F 57 °F 44 °F (1957)
Degree Days  
Heating Degree Days 0 0  
Month to date heating degree days 2 8  
Since 1 June heating degree days 37 91  
Since 1 July heating degree days 2 8  
Cooling Degree Days 10 7  
Month to date cooling degree days 168 148  
Year to date cooling degree days 319 218  
Since 1 June cooling degree days 290 198  
Growing Degree Days 24 (Base 50)    
Moisture  
Dew Point 53 °F    
Average Humidity 52    
Maximum Humidity 75    
Minimum Humidity 29    
Precipitation  
Precipitation 0.00 in 0.01 in 1.01 in (1947)
Month to date precipitation 0.02 0.38  
Year to date precipitation 21.69 19.14  
Snow  
Snow 0.00 in - - ()
Month to date snowfall 0.0  
Since 1 July snowfall 0.0  
Snow Depth 0.00 in    
Sea Level Pressure  
Sea Level Pressure 30.19 in    
Wind  
Wind Speed 5 mph (NNW)    
Max Wind Speed 17 mph    
Max Gust Speed 21 mph    
Visibility 10 miles    
Events      
T = Trace of Precipitation, MM = Missing Value Source: NWS Daily Summary

Daily Weather History Graph

Daily Weather History Graph

Search for Another Location

Airport or City:

Astronomy

Jul. 27, 2019 Rise Set
Actual Time 5:58 AM PDT 8:40 PM PDT
Civil Twilight 5:25 AM PDT 9:13 PM PDT
Nautical Twilight 4:43 AM PDT 9:55 PM PDT
Astronomical Twilight 3:56 AM PDT 10:42 PM PDT
Moon 1:48 AM PDT (7/27) 4:38 PM PDT (7/27)
Length of Visible Light 15h 48m
Length of Day
14h 42m
Waning Crescent, 23% of the Moon is Illuminated
Jul 27
Waning Crescent
Jul 31
New
Aug 7
First Quarter
Aug 15
Full
Aug 23
Last Quarter

Hourly Weather History & Observations

Time (PDT) Temp. Heat Index Dew Point Humidity Pressure Visibility Wind Dir Wind Speed Gust Speed Precip Events Conditions
12:53 AM 66.0 °F - 51.1 °F 59% 30.19 in 10.0 mi Variable 3.5 mph - N/A   Clear
1:53 AM 64.9 °F - 52.0 °F 63% 30.20 in 10.0 mi NNW 3.5 mph - N/A   Clear
2:53 AM 63.0 °F - 52.0 °F 67% 30.20 in 10.0 mi Calm Calm - N/A   Clear
3:53 AM 61.0 °F - 52.0 °F 72% 30.20 in 10.0 mi Calm Calm - N/A   Clear
4:53 AM 61.0 °F - 52.0 °F 72% 30.21 in 10.0 mi Calm Calm - N/A   Clear
5:53 AM 59.0 °F - 51.1 °F 75% 30.23 in 10.0 mi Calm Calm - N/A   Clear
6:53 AM 59.0 °F - 51.1 °F 75% 30.24 in 10.0 mi Calm Calm - N/A   Clear
7:53 AM 63.0 °F - 51.1 °F 65% 30.25 in 10.0 mi Calm Calm - N/A   Clear
8:53 AM 66.9 °F - 54.0 °F 63% 30.25 in 10.0 mi SW 3.5 mph - N/A   Clear
9:53 AM 69.1 °F - 55.0 °F 61% 30.25 in 10.0 mi Variable 3.5 mph - N/A   Clear
10:53 AM 75.0 °F - 55.9 °F 51% 30.23 in 10.0 mi Calm Calm - N/A   Clear
11:53 AM 77.0 °F - 55.0 °F 47% 30.22 in 10.0 mi Calm Calm - N/A   Clear
12:53 PM 82.9 °F 81.8 °F 53.1 °F 36% 30.20 in 10.0 mi NNE 9.2 mph - N/A   Clear
1:53 PM 86.0 °F 84.0 °F 53.1 °F 32% 30.18 in 10.0 mi NNE 5.8 mph - N/A   Clear
2:53 PM 88.0 °F 85.7 °F 53.1 °F 30% 30.16 in 10.0 mi North 6.9 mph - N/A   Clear
3:53 PM 89.1 °F 86.9 °F 54.0 °F 30% 30.14 in 10.0 mi Variable 3.5 mph - N/A   Clear
4:53 PM 89.1 °F 87.1 °F 55.0 °F 31% 30.12 in 10.0 mi Variable 3.5 mph - N/A   Clear
5:53 PM 90.0 °F 87.9 °F 55.0 °F 30% 30.11 in 10.0 mi North 15.0 mph 20.7 mph N/A   Clear
6:53 PM 86.0 °F 85.0 °F 57.9 °F 38% 30.11 in 10.0 mi NW 10.4 mph 18.4 mph N/A   Clear
7:53 PM 82.0 °F 81.6 °F 55.9 °F 41% 30.12 in 10.0 mi NW 8.1 mph - N/A   Clear